Location: Peebles
(55.6412°N, 3.1714°W)
Time: 15:51:59
(UTC+01:00)

Altair 2 - Visible Passes

Search period start: 03 July 2022 00:00
Search period end: 13 July 2022 00:00
Orbit: 702 x 2529 km, 96.4° (Epoch: 02 July)

Date Brightness Start Highest point End Pass type
(mag) Time Alt. Az. Time Alt. Az. Time Alt. Az.
03 Jul 11.7 01:59:22 10° ENE 02:04:56 17° NE 02:09:39 10° N visible
04 Jul 11.7 01:44:14 10° ENE 01:48:40 14° NE 01:52:32 10° N visible
04 Jul 10.8 03:33:47 10° ESE 03:43:48 38° ENE 03:51:15 10° N visible
05 Jul 11.7 01:29:18 10° NE 01:32:25 12° NNE 01:35:14 10° N visible
05 Jul 10.9 03:18:04 10° ESE 03:27:22 33° ENE 03:34:21 10° N visible
06 Jul 11.8 01:15:03 10° NE 01:16:10 10° NNE 01:17:15 10° NNE visible
06 Jul 11.1 03:02:26 10° ESE 03:10:55 29° NE 03:17:26 10° N visible
07 Jul 11.2 02:46:52 10° E 02:54:30 25° NE 03:00:29 10° N visible
08 Jul 11.3 02:31:23 10° E 02:38:05 21° NE 02:43:29 10° N visible
09 Jul 11.4 02:16:01 10° E 02:21:42 18° NE 02:26:25 10° N visible
10 Jul 11.5 02:00:46 10° ENE 02:05:20 15° NE 02:09:16 10° N visible
11 Jul 11.5 01:45:42 10° ENE 01:49:00 13° NE 01:51:55 10° NNE visible
11 Jul 10.4 03:35:24 10° SE 03:44:33 39° ENE 03:51:12 10° N visible
12 Jul 11.6 01:31:15 10° NE 01:32:40 11° NE 01:33:59 10° NNE visible
12 Jul 10.6 03:19:36 10° ESE 03:28:01 33° ENE 03:34:15 10° N visible
